Time,TemperatureF,DewpointF,PressureIn,WindDirection,WindDirectionDegrees,WindSpeedMPH,WindSpeedGustMPH,Humidity,HourlyPrecipIn,Conditions,Clouds,dailyrainin,SoftwareType,DateUTC
2013-09-15 00:11:00,59.0,46.0,-100.00,SSE,162,0.0,1.0,61,0.00,,,-99.99,,2013-09-15 07:11:00,
2013-09-15 00:42:00,59.0,46.0,-100.00,South,171,1.0,2.0,61,0.00,,,-99.99,,2013-09-15 07:42:00,
2013-09-15 00:52:00,58.0,45.0,-100.00,SSE,157,0.0,1.0,63,0.00,,,-99.99,,2013-09-15 07:52:00,
2013-09-15 01:21:00,59.0,45.0,-100.00,SSE,168,1.0,2.0,60,0.00,,,-99.99,,2013-09-15 08:21:00,
2013-09-15 01:42:00,57.0,45.0,-100.00,SE,128,0.0,1.0,64,0.00,,,-99.99,,2013-09-15 08:42:00,
2013-09-15 01:52:00,58.0,46.0,-100.00,SE,126,0.0,1.0,65,0.00,,,-99.99,,2013-09-15 08:52:00,
2013-09-15 02:02:00,58.0,46.0,-100.00,SE,126,0.0,1.0,65,0.00,,,-99.99,,2013-09-15 09:02:00,
2013-09-15 02:12:00,58.0,46.0,-100.00,SE,126,0.0,1.0,65,0.00,,,-99.99,,2013-09-15 09:12:00,
2013-09-15 02:21:00,57.0,47.0,-100.00,SSE,168,0.0,1.0,69,0.00,,,-99.99,,2013-09-15 09:21:00,
2013-09-15 02:43:00,57.0,45.0,-100.00,SSE,161,0.0,2.0,64,0.00,,,-99.99,,2013-09-15 09:43:00,
2013-09-15 02:53:00,57.0,45.0,-100.00,SSE,161,0.0,2.0,64,0.00,,,-99.99,,2013-09-15 09:53:00,
2013-09-15 03:03:00,57.0,45.0,-100.00,SSE,161,0.0,2.0,64,0.00,,,-99.99,,2013-09-15 10:03:00,
2013-09-15 03:43:00,57.0,48.0,-100.00,South,172,0.0,1.0,71,0.00,,,-99.99,,2013-09-15 10:43:00,
2013-09-15 04:12:00,56.0,47.0,-100.00,SSE,154,0.0,1.0,73,0.00,,,-99.99,,2013-09-15 11:12:00,
2013-09-15 04:22:00,56.0,47.0,-100.00,SSE,168,0.0,1.0,72,0.00,,,-99.99,,2013-09-15 11:22:00,
2013-09-15 04:42:00,56.0,47.0,-100.00,SSE,160,0.0,1.0,73,0.00,,,-99.99,,2013-09-15 11:42:00,
2013-09-15 05:12:00,56.0,44.0,-100.00,SSE,157,1.0,2.0,64,0.00,,,-99.99,,2013-09-15 12:12:00,
2013-09-15 05:21:00,56.0,44.0,-100.00,SSE,157,1.0,2.0,64,0.00,,,-99.99,,2013-09-15 12:21:00,
2013-09-15 05:31:00,56.0,44.0,-100.00,SSE,157,1.0,2.0,64,0.00,,,-99.99,,2013-09-15 12:31:00,
2013-09-15 05:52:00,56.0,43.0,-100.00,SE,137,0.0,2.0,61,0.00,,,-99.99,,2013-09-15 12:52:00,
2013-09-15 06:42:00,56.0,41.0,-100.00,SSE,162,1.0,2.0,58,0.00,,,-99.99,,2013-09-15 13:42:00,
2013-09-15 07:11:00,55.0,41.0,-100.00,SE,124,0.0,1.0,60,0.00,,,-99.99,,2013-09-15 14:11:00,
2013-09-15 12:52:00,74.0,36.0,-100.00,NE,41,6.0,12.0,25,0.00,,,-99.99,,2013-09-15 19:52:00,
2013-09-15 13:02:00,74.0,36.0,-100.00,NE,41,6.0,12.0,25,0.00,,,-99.99,,2013-09-15 20:02:00,
2013-09-15 13:22:00,75.0,35.0,-100.00,NE,45,6.0,15.0,23,0.00,,,-99.99,,2013-09-15 20:22:00,
2013-09-15 13:42:00,75.0,37.0,-100.00,NE,35,7.0,14.0,25,0.00,,,-99.99,,2013-09-15 20:42:00,
2013-09-15 13:53:00,75.0,38.0,-100.00,NE,42,6.0,12.0,26,0.00,,,-99.99,,2013-09-15 20:53:00,
2013-09-15 14:02:00,75.0,38.0,-100.00,NE,42,6.0,12.0,26,0.00,,,-99.99,,2013-09-15 21:02:00,
2013-09-15 14:11:00,75.0,38.0,-100.00,NE,42,6.0,12.0,26,0.00,,,-99.99,,2013-09-15 21:11:00,
2013-09-15 14:21:00,75.0,40.0,-100.00,NE,55,7.0,14.0,28,0.00,,,-99.99,,2013-09-15 21:21:00,
2013-09-15 14:34:00,75.0,40.0,-100.00,NE,55,7.0,14.0,28,0.00,,,-99.99,,2013-09-15 21:34:00,
2013-09-15 15:14:00,75.0,41.0,-100.00,NE,44,7.0,20.0,30,0.00,,,-99.99,,2013-09-15 22:14:00,
2013-09-15 15:23:00,75.0,41.0,-100.00,NE,44,6.0,14.0,29,0.00,,,-99.99,,2013-09-15 22:23:00,
2013-09-15 15:43:00,75.0,41.0,-100.00,NE,41,6.0,11.0,30,0.00,,,-99.99,,2013-09-15 22:43:00,
2013-09-15 16:12:00,75.0,41.0,-100.00,NE,44,6.0,13.0,29,0.00,,,-99.99,,2013-09-15 23:12:00,
2013-09-15 16:22:00,76.0,42.0,-100.00,NE,38,5.0,12.0,30,0.00,,,-99.99,,2013-09-15 23:22:00,
2013-09-15 16:42:00,75.0,42.0,-100.00,NNE,28,6.0,13.0,31,0.00,,,-99.99,,2013-09-15 23:42:00,
2013-09-15 16:52:00,73.0,41.0,-100.00,NE,40,5.0,11.0,31,0.00,,,-99.99,,2013-09-15 23:52:00,
2013-09-15 16:53:00,75.0,42.0,-100.00,NNE,28,6.0,13.0,31,0.00,,,-99.99,,2013-09-15 23:53:00,
2013-09-15 17:01:00,75.0,42.0,-100.00,NNE,28,6.0,13.0,31,0.00,,,-99.99,,2013-09-16 00:01:00,
2013-09-15 17:22:00,73.0,41.0,-100.00,NE,45,5.0,10.0,31,0.00,,,-99.99,,2013-09-16 00:22:00,
2013-09-15 17:42:00,73.0,41.0,-100.00,NE,40,5.0,11.0,31,0.00,,,-99.99,,2013-09-16 00:42:00,
2013-09-15 18:21:00,70.0,41.0,-100.00,North,-999,-999.0,-999.0,35,0.00,,,-99.99,,2013-09-16 01:21:00,
2013-09-15 18:40:00,68.0,39.0,-100.00,NE,47,4.0,8.0,35,0.00,,,-99.99,,2013-09-16 01:40:00,
2013-09-15 18:42:00,70.0,41.0,-100.00,NE,51,5.0,11.0,35,0.00,,,-99.99,,2013-09-16 01:42:00,
2013-09-15 18:52:00,69.0,38.0,-100.00,NE,47,4.0,15.0,32,0.00,,,-99.99,,2013-09-16 01:52:00,
2013-09-15 19:02:00,69.0,38.0,-100.00,NE,47,4.0,15.0,32,0.00,,,-99.99,,2013-09-16 02:02:00,
2013-09-15 19:22:00,68.0,39.0,-100.00,NE,47,4.0,8.0,35,0.00,,,-99.99,,2013-09-16 02:22:00,
2013-09-15 19:32:00,68.0,39.0,-100.00,NE,47,4.0,8.0,35,0.00,,,-99.99,,2013-09-16 02:32:00,
2013-09-15 20:45:00,64.0,34.0,-100.00,NE,56,3.0,6.0,33,0.00,,,-99.99,,2013-09-16 03:45:00,
2013-09-15 21:24:00,60.0,36.0,-100.00,ESE,117,1.0,4.0,41,0.00,,,-99.99,,2013-09-16 04:24:00,
2013-09-15 21:43:00,59.0,37.0,-100.00,ESE,121,1.0,2.0,44,0.00,,,-99.99,,2013-09-16 04:43:00,
2013-09-15 21:54:00,59.0,37.0,-100.00,ESE,121,1.0,2.0,44,0.00,,,-99.99,,2013-09-16 04:54:00,
2013-09-15 22:03:00,59.0,37.0,-100.00,ESE,121,1.0,2.0,44,0.00,,,-99.99,,2013-09-16 05:03:00,
2013-09-15 22:22:00,58.0,37.0,-100.00,SE,134,1.0,3.0,45,0.00,,,-99.99,,2013-09-16 05:22:00,
2013-09-15 22:44:00,57.0,35.0,-100.00,SE,141,1.0,3.0,44,0.00,,,-99.99,,2013-09-16 05:44:00,
2013-09-15 23:12:00,57.0,35.0,-100.00,SE,140,1.0,3.0,44,0.00,,,-99.99,,2013-09-16 06:12:00,
2013-09-15 23:22:00,57.0,35.0,-100.00,SSE,147,1.0,3.0,43,0.00,,,-99.99,,2013-09-16 06:22:00,
2013-09-15 23:43:00,57.0,34.0,-100.00,SE,130,1.0,4.0,41,0.00,,,-99.99,,2013-09-16 06:43:00,
2013-09-15 23:52:00,57.0,34.0,-100.00,SE,130,1.0,4.0,41,0.00,,,-99.99,,2013-09-16 06:52:00,